Theta_e
322 321 320 320 324 325 326 329 328 329 328 326 328 331 334 334 334 336 334 329 334 334 334 331 330 322 315 312 312 312 313 313 322 324 325 325 327 330 329 328 329 322 316 319 313 310 311 312 312
322 320 320 321 325 325 326 327 330 328 330 329 330 332 333 336 333 335 333 331 334 333 336 332 328 317 311 318 322 315 312 312 315 315 322 328 329 329 327 328 327 318 317 322 318 314 313 313 313
322 320 322 323 323 326 324 325 329 329 327 328 330 331 332 334 333 335 334 332 333 334 334 332 328 316 313 322 330 325 315 319 330 329 327 328 328 324 320 320 318 313 317 315 315 313 314 314 313
321 320 319 323 322 322 321 324 326 329 324 327 330 331 333 333 333 334 331 332 333 331 332 331 328 318 314 328 333 328 322 317 328 330 325 327 318 311 311 310 312 313 312 312 313 314 314 314 313
321 321 323 322 322 320 318 320 326 328 326 329 329 332 333 332 334 334 330 332 333 332 332 329 330 322 315 325 329 330 326 319 328 329 327 317 316 312 311 311 312 312 313 313 313 314 314 315 314
322 320 323 324 322 319 321 323 327 325 325 329 329 331 334 333 334 332 331 332 333 331 330 329 332 326 315 314 322 328 329 317 322 327 327 321 316 314 312 312 313 313 314 314 314 314 315 316 315
323 323 324 322 321 321 323 322 325 324 325 327 330 331 333 333 335 331 330 330 328 327 330 331 332 329 316 313 314 320 322 315 315 325 328 319 315 314 314 313 314 314 315 316 315 315 315 316 316
319 322 322 321 322 322 322 320 318 323 324 325 330 329 334 334 334 331 325 325 324 324 326 330 332 330 316 314 313 314 316 314 316 321 324 317 315 316 316 316 316 316 317 317 316 316 316 316 316
318 323 324 322 320 320 320 321 317 319 326 328 329 327 331 333 334 330 325 326 323 320 321 330 332 331 318 315 314 313 312 312 314 315 316 315 315 316 318 318 318 318 318 318 318 317 316 316 316
323 325 324 318 318 318 317 320 319 323 326 327 328 324 329 333 333 331 328 328 321 320 321 327 331 329 319 315 314 313 312 312 314 315 316 317 318 317 319 320 320 319 319 319 319 319 318 318 318
320 325 320 316 316 315 316 316 319 321 325 323 326 327 330 334 333 333 330 330 325 321 321 321 326 328 321 316 315 314 314 314 314 315 316 317 318 319 320 320 321 321 320 320 320 320 319 319 319
320 319 319 315 314 315 316 315 318 320 321 321 325 324 329 335 333 333 331 330 329 324 322 320 320 325 325 316 317 317 317 316 316 317 318 318 318 319 320 320 321 321 321 321 321 320 319 320 320
320 316 316 314 314 314 314 315 317 318 319 318 322 324 329 334 333 332 332 331 331 326 323 317 315 321 321 317 317 318 318 319 319 319 319 319 320 320 321 321 322 322 322 322 322 322 322 322 321
320 318 316 316 316 316 315 315 314 318 318 317 322 327 328 332 332 331 330 331 329 324 320 314 313 319 320 318 318 319 319 320 321 320 321 321 321 321 322 322 322 323 322 322 323 323 323 321 320
316 321 321 317 314 315 314 317 316 316 318 323 325 328 328 331 331 331 329 327 322 318 315 313 313 316 318 318 320 320 320 320 320 321 321 322 322 322 322 323 323 323 323 323 324 322 320 320 320
319 320 324 323 314 312 317 322 318 315 321 322 325 329 328 329 330 331 329 329 329 323 316 316 315 315 317 318 319 319 320 320 322 323 324 323 322 322 323 324 324 323 324 323 322 321 320 321 320
322 326 325 325 314 315 316 322 315 313 320 322 325 327 329 330 331 331 330 329 329 328 320 317 317 317 316 317 319 319 320 321 324 325 324 322 323 323 323 322 322 322 322 321 321 321 320 320 320
325 326 323 326 317 313 317 317 318 312 316 320 323 326 327 329 328 327 330 330 329 330 327 318 318 319 319 320 323 325 327 327 327 325 324 324 324 323 323 322 322 321 321 321 321 321 320 319 319
324 327 328 321 312 314 318 318 317 316 312 318 321 324 326 327 326 328 329 330 330 331 330 328 320 319 322 325 327 328 327 326 326 325 325 324 324 323 322 322 321 321 321 321 320 320 320 319 317
325 326 328 326 316 315 318 317 316 316 313 313 317 321 324 326 325 323 325 329 329 330 330 330 330 329 327 328 328 328 327 327 326 325 324 325 324 324 323 322 322 322 322 321 321 320 319 318 317
323 326 327 327 313 312 316 324 324 320 312 312 312 315 321 325 323 322 322 325 326 327 329 330 329 329 330 330 330 330 329 328 326 325 325 325 324 324 323 323 322 322 321 321 321 320 319 318 318
324 319 322 322 321 327 319 329 327 325 323 313 312 312 315 321 320 323 321 321 322 324 326 327 329 330 329 330 331 331 330 328 327 325 324 323 324 323 322 322 322 321 321 321 320 319 318 318 317
321 315 316 313 318 313 318 316 324 317 318 317 314 313 315 315 316 318 319 318 318 319 322 324 327 328 329 330 330 331 331 330 329 327 326 325 325 324 323 322 321 321 321 320 319 318 318 318 316
315 314 314 313 316 322 321 316 325 323 319 320 316 313 313 316 316 315 317 318 318 318 318 319 323 326 327 329 329 330 331 331 331 329 328 327 326 325 323 322 321 321 320 319 318 317 318 317 302
315 319 319 320 321 327 311 316 321 320 316 317 318 316 316 315 316 316 315 316 316 317 317 318 321 323 325 327 328 329 330 330 330 330 329 326 325 325 324 322 321 320 319 318 317 317 315 302 298
316 319 320 325 322 322 305 316 318 313 310 313 310 311 312 313 314 316 316 315 315 315 314 317 319 322 324 325 326 328 329 330 330 330 329 329 326 326 324 322 320 319 318 317 317 313 301 298 297
315 318 315 314 305 312 314 313 313 312 312 309 310 309 309 312 312 313 314 315 314 313 312 312 316 319 323 324 325 327 328 329 328 330 330 330 328 327 324 322 321 319 318 316 312 301 298 297 296
316 314 317 315 321 321 319 313 316 314 312 313 311 311 313 310 310 311 312 313 314 313 312 311 310 314 320 322 323 325 327 328 328 329 331 332 328 327 324 322 321 318 316 311 302 298 297 296 296
314 315 315 316 314 319 319 319 313 314 313 311 310 309 308 309 310 311 312 311 311 311 312 311 310 314 318 320 322 324 326 327 328 329 330 331 329 327 323 322 320 316 314 303 299 297 296 295 295
313 314 315 318 317 315 311 317 309 309 308 307 308 308 309 310 310 310 310 310 310 310 310 311 310 313 316 319 320 321 323 322 325 326 329 329 329 327 323 321 317 315 308 299 297 296 295 294 294
Wind_Speed
2 4 2 3 3 2 2 3 0 5 5 3 5 2 0 4 2 3 13 18 19 17 15 13 8 8 7 9 11 11 10 11 12 11 10 11 14 16 15 15 16 15 17 17 17 15 15 15 15
2 3 2 2 3 4 2 2 5 4 5 10 7 4 2 3 3 9 15 20 18 18 17 13 10 9 8 11 13 13 12 14 16 13 13 16 17 17 14 15 15 13 17 16 16 16 17 17 17
1 2 1 1 1 3 0 4 5 8 8 5 4 3 2 2 3 15 15 21 19 18 16 14 12 9 10 12 12 13 13 16 18 14 14 18 15 14 12 15 14 14 16 16 16 16 16 18 19
1 2 3 3 2 2 1 2 7 13 3 3 5 6 4 3 10 12 21 21 18 17 15 14 12 11 13 14 12 10 12 15 20 16 13 15 14 14 13 13 15 16 16 15 15 16 17 17 18
2 2 2 2 3 1 3 3 12 11 6 6 4 5 2 7 10 14 23 19 18 18 16 13 11 10 10 15 14 10 11 14 18 17 12 13 12 12 12 13 15 15 14 14 14 15 16 17 17
3 1 4 7 3 1 2 6 11 8 5 6 4 8 6 10 11 19 19 18 18 18 17 15 12 9 10 12 13 13 10 13 16 15 11 11 12 11 12 13 13 13 13 13 13 14 15 15 15
4 3 6 2 2 3 3 9 10 7 7 5 6 7 4 11 16 21 19 17 19 17 16 15 14 11 9 11 12 13 11 12 14 16 11 11 11 12 13 12 12 12 13 13 13 13 13 13 15
5 3 4 4 4 2 6 10 3 7 5 7 6 4 6 19 22 22 23 20 19 17 17 17 15 13 11 11 12 12 12 11 11 13 12 11 11 12 12 11 10 11 12 12 13 12 13 13 14
8 4 7 5 4 2 9 9 5 5 6 5 8 3 4 23 25 25 24 22 20 19 18 17 16 13 11 12 12 12 11 10 10 10 9 9 9 10 10 9 9 10 10 11 11 11 12 12 12
8 9 10 2 1 3 2 7 9 7 7 7 9 10 11 24 28 28 26 24 21 21 21 19 17 15 12 11 11 11 11 11 11 10 9 8 8 8 8 8 8 8 8 8 9 10 10 10 10
5 14 7 4 7 4 2 5 7 7 8 12 15 16 18 27 28 27 24 24 22 21 21 20 18 16 13 11 11 12 11 10 9 9 8 8 7 6 6 6 6 6 6 6 7 7 7 8 9
9 8 10 7 4 5 3 2 6 14 7 5 8 14 22 30 30 29 27 24 21 24 22 20 18 18 15 13 12 11 10 9 8 7 7 7 6 5 4 4 4 4 4 4 4 4 5 5 6
9 8 6 6 8 5 4 7 9 13 11 6 12 15 24 28 27 24 24 24 25 26 23 21 19 19 17 16 14 12 11 10 9 8 7 6 5 4 4 3 2 2 2 2 2 3 3 4 6
7 8 4 3 2 2 2 5 1 7 15 10 13 17 23 27 28 26 25 26 26 25 24 22 21 20 18 16 16 14 12 11 10 9 8 7 6 6 4 3 2 1 0 1 2 2 3 5 8
4 6 6 1 2 1 2 5 10 11 12 13 16 18 21 23 25 29 27 27 25 23 21 21 22 22 20 17 15 14 13 12 12 11 10 9 8 7 6 5 3 3 2 1 1 4 7 9 10
7 5 7 10 5 2 5 14 15 10 12 17 17 17 21 24 28 29 28 28 25 24 23 22 21 21 21 20 19 17 15 14 13 12 12 11 12 8 8 6 5 3 1 1 4 7 9 10 13
5 7 15 9 9 6 10 10 4 7 12 16 17 18 20 22 25 28 27 29 27 26 25 25 24 22 19 19 18 17 17 16 15 14 12 10 7 6 6 5 4 5 5 5 6 8 10 10 12
7 11 9 16 4 6 11 14 13 7 12 16 16 18 20 23 26 27 29 30 28 27 26 25 25 23 22 21 20 19 18 17 16 14 12 10 10 9 8 8 8 7 7 8 9 10 11 11 13
11 13 14 7 2 5 15 16 16 13 9 15 18 19 21 24 23 25 30 32 31 30 28 27 27 26 25 25 25 24 22 19 17 16 14 13 12 11 11 9 10 9 10 10 10 11 12 12 11
11 12 12 6 5 4 10 16 13 14 12 18 19 21 24 21 24 29 32 34 35 33 33 31 29 28 27 26 25 25 23 21 19 17 15 14 14 15 13 12 12 12 12 12 12 12 12 12 10
5 10 10 7 3 4 9 23 22 18 15 16 19 23 20 25 28 30 34 37 36 37 37 36 33 31 30 28 26 26 25 23 21 22 20 19 17 16 15 16 16 16 14 17 15 14 12 12 11
7 4 4 7 3 8 2 8 17 15 24 17 22 24 28 27 32 30 35 37 38 39 38 39 36 35 33 30 31 30 27 26 25 22 22 20 18 19 20 20 19 19 19 17 16 14 14 13 13
3 10 5 3 3 4 8 6 12 3 16 21 23 26 32 34 33 38 38 37 35 36 39 40 39 39 37 36 36 34 32 30 26 28 26 26 23 20 20 21 21 21 20 18 17 15 15 13 12
19 13 13 8 3 6 10 9 11 16 20 17 19 26 33 37 38 38 38 36 36 36 37 38 41 42 40 40 39 38 36 34 35 32 29 29 27 24 21 21 22 21 20 19 16 15 14 13 10
7 12 3 3 4 8 3 10 18 15 10 12 18 24 33 36 40 40 39 40 38 40 39 40 42 44 43 43 42 41 39 38 37 36 34 31 30 28 23 20 22 22 21 21 19 17 15 11 10
9 4 4 6 5 3 1 10 5 8 11 16 14 18 17 30 39 42 40 39 42 41 41 43 43 43 43 43 42 42 40 40 39 39 36 33 29 30 23 19 21 22 23 20 19 16 14 11 10
5 5 2 2 3 2 6 8 12 13 12 10 19 18 16 23 22 37 37 38 39 42 42 42 43 43 43 43 43 43 43 41 40 39 39 36 32 29 26 22 23 25 23 21 19 16 14 12 10
12 14 4 2 6 7 9 8 10 5 11 13 12 18 24 17 17 21 26 32 37 38 39 39 41 42 41 41 41 41 41 41 40 39 40 38 35 32 29 26 26 25 23 21 19 16 14 12 10
10 10 3 3 4 4 4 8 6 9 8 5 5 8 9 11 14 19 23 25 25 26 33 38 39 41 41 40 39 38 38 39 39 39 38 37 38 35 32 27 24 24 23 22 19 16 14 13 10
15 13 10 7 6 5 1 11 3 5 2 1 6 6 8 9 11 10 13 20 25 26 28 34 40 42 41 40 39 38 38 39 38 38 37 37 38 39 30 26 25 25 25 23 19 17 15 13 11
Wind_Direction
316 341 356 30 241 249 165 149 62 157 155 105 127 186 119 33 334 17 143 156 151 151 151 146 133 131 124 115 113 114 124 139 145 135 133 121 111 109 104 90 94 81 87 81 78 77 72 69 67
335 7 54 70 259 238 140 137 193 142 122 123 115 114 126 84 74 133 143 151 150 153 148 146 135 127 120 118 118 113 116 119 121 126 126 122 113 109 112 101 89 85 89 82 78 74 71 67 66
13 56 77 84 223 262 128 174 139 128 131 141 130 75 82 103 117 147 154 153 152 151 153 146 137 126 124 120 120 110 114 116 113 113 113 112 118 120 111 103 98 89 84 79 78 76 73 67 65
136 87 61 248 222 151 314 120 158 154 146 138 137 111 93 138 152 159 156 155 155 155 157 146 140 134 138 124 127 117 116 123 118 118 114 117 110 97 94 88 91 86 80 77 79 75 69 68 67
147 113 162 233 220 183 244 235 180 171 144 152 162 130 94 148 154 159 157 156 160 155 158 151 147 137 138 136 133 125 120 121 128 127 125 114 102 99 97 93 88 87 81 76 78 78 72 67 69
131 182 193 222 219 202 241 184 173 179 152 147 158 135 141 165 166 161 158 158 166 159 157 157 153 151 138 142 145 141 125 121 134 118 121 109 104 103 102 95 90 87 85 81 80 76 72 69 69
154 197 216 213 240 234 185 164 179 183 157 167 157 146 156 166 166 162 161 165 172 167 160 161 162 158 145 145 149 156 143 124 133 129 130 109 100 100 100 99 95 90 84 79 77 74 72 70 66
134 168 184 218 227 239 168 171 183 192 159 156 172 192 177 179 169 170 171 175 176 179 169 168 166 166 155 151 148 153 154 139 130 131 129 118 107 103 99 95 93 90 86 82 79 76 72 69 67
136 203 219 205 194 138 164 188 165 183 144 174 188 165 175 177 171 173 177 180 184 180 177 171 173 171 168 161 152 149 149 145 144 139 137 119 108 103 98 100 97 91 85 79 77 75 71 68 64
196 213 211 122 46 26 206 226 177 170 176 196 190 201 173 180 177 179 182 185 187 181 179 176 180 178 176 169 157 153 151 155 154 151 142 134 123 117 115 105 97 88 80 73 70 69 70 68 63
171 216 180 129 95 46 350 241 193 203 206 217 208 191 180 182 182 186 190 193 190 185 187 184 181 181 179 173 170 165 164 160 158 153 147 141 138 132 119 114 104 94 85 75 65 57 56 58 52
190 204 188 149 63 60 337 290 231 216 238 226 205 202 182 184 190 189 195 193 195 195 190 188 187 186 183 183 180 176 173 170 165 160 158 152 150 149 140 124 107 99 91 82 77 72 68 57 48
220 177 182 133 70 60 327 274 266 247 236 239 195 194 187 188 192 192 199 204 201 200 196 192 190 190 190 187 185 189 186 184 184 182 183 175 173 169 166 155 146 107 75 59 51 47 39 24 10
185 169 158 149 61 353 360 336 257 267 215 219 198 194 193 195 194 194 194 201 204 200 201 195 195 194 195 196 192 193 196 199 202 205 202 200 204 205 204 212 216 226 304 16 33 51 22 351 348
140 189 217 146 189 82 73 270 233 252 211 202 199 198 197 198 195 200 196 195 199 201 203 205 201 199 200 201 206 208 209 211 212 220 224 220 220 223 226 231 240 250 262 288 12 336 350 339 332
200 245 213 220 187 185 204 261 269 235 216 209 208 201 201 202 204 203 200 199 201 203 202 205 211 211 207 205 207 211 216 220 220 222 228 235 238 236 235 234 234 231 226 341 343 340 329 326 320
202 204 215 219 218 176 209 252 216 225 220 227 214 207 206 206 207 210 204 203 204 206 207 207 206 211 215 217 218 218 217 221 225 228 238 253 233 247 255 238 234 242 277 300 306 312 317 315 310
168 194 222 223 182 213 222 243 259 233 217 240 230 221 212 211 214 211 206 206 209 209 209 214 213 212 212 215 218 221 223 222 222 234 232 231 241 245 254 255 248 261 267 284 292 304 309 310 308
179 209 210 189 122 227 238 246 248 250 224 229 237 229 224 217 216 211 210 211 210 214 212 214 216 216 215 218 219 220 224 223 231 232 233 241 245 247 255 259 255 268 273 278 289 295 299 299 308
189 207 217 227 219 262 262 265 254 252 240 237 239 238 230 223 216 213 211 213 214 216 219 216 218 219 222 224 228 232 233 229 235 243 243 242 243 245 246 258 261 268 272 279 281 290 295 289 302
197 202 216 235 154 251 278 275 257 251 244 240 230 239 241 227 221 216 213 216 217 218 220 223 220 220 222 225 227 228 229 230 231 235 236 242 240 250 254 255 257 260 270 271 277 281 273 275 291
177 195 210 214 208 253 283 281 264 252 239 224 232 225 237 235 229 223 219 218 219 222 223 226 225 226 225 225 227 229 232 233 237 237 241 240 241 243 252 254 254 257 263 269 272 271 261 263 282
152 138 124 47 137 25 223 270 264 276 235 229 224 223 230 238 235 231 225 224 225 226 227 228 228 229 229 228 230 231 232 235 239 237 236 238 241 243 253 252 257 261 264 265 265 256 251 256 271
127 78 60 47 56 247 211 219 239 249 242 239 223 223 228 231 237 238 237 229 227 228 230 230 229 231 230 231 231 233 234 237 237 236 236 238 242 245 248 255 255 256 261 262 250 242 247 256 255
105 128 113 174 202 248 64 222 252 256 271 257 243 235 232 233 232 235 236 233 228 228 229 229 228 230 229 231 233 234 235 238 241 240 237 237 239 242 241 252 253 254 258 255 246 244 245 243 254
151 136 174 198 196 251 116 236 245 260 297 262 274 261 249 234 230 233 235 237 236 234 232 231 231 231 230 231 233 236 237 239 240 237 240 240 241 245 241 251 253 249 249 245 241 232 233 244 253
166 188 154 122 60 253 225 267 263 252 261 236 241 257 267 247 250 242 237 236 240 240 238 235 234 233 233 235 236 237 239 238 238 235 236 238 241 240 234 247 252 247 248 238 225 225 232 239 251
177 152 138 221 210 242 235 264 253 303 244 247 242 244 256 262 258 255 251 243 241 246 245 243 237 235 234 234 237 238 239 237 237 236 235 234 233 233 232 245 256 246 230 221 220 226 232 242 252
148 176 138 159 219 234 277 261 210 242 280 296 324 288 297 309 284 271 268 262 255 250 248 240 235 231 230 232 234 236 238 240 239 237 235 234 230 230 227 237 252 228 221 218 221 226 232 241 251
199 188 175 184 185 242 341 261 165 226 203 213 326 16 15 358 342 316 300 273 258 245 238 238 233 230 230 232 232 235 238 241 239 239 234 233 227 228 227 232 238 221 216 219 221 225 232 241 250